星链-31885 (STARLINK-31885 )

导读 | 豆包AI

STARLINK-31885是美国太空探索技术公司SpaceX于2024年5月6日发射的星链卫星,隶属于第二代星链星座。星链项目旨在为全球尤其是偏远地区提供高速低延迟宽带互联网服务,STARLINK-31885采用改进版技术设计,拥有更高效天线阵列与更大通信容量,将进一步完善星链星座的全球覆盖能力,推动低轨卫星互联网的规模化部署。

基本信息
目录编号:
59660
目录名称:
STARLINK-31885
国际标识:
2024-084G
轨道中心:
EARTH
卫星名称:
星链-31885
卫星全名:
星链-31885 (STARLINK-31885 )
卫星状态:
在轨 (已飞行725 天)
发射日期:
2024-05-06 UTC
国别 :
美国 (US)
星等 :
--
轨道信息
数据来源 国际轨道数据
星历时间: 2026-04-30T16:25:48+0800
17小时前
查看轨道信息
半长轴: 6861.22km
偏心率: 0.0001541
轨道倾角: 43.005°
近地点辐角 289.253°
升交点赤经 106.624°
平近点角 70.816°
近地点: 482.025km
远地点: 484.141km
周期: 94.267分钟
每日圈数: 15.275687
详细信息
固有亮度:
5
最大亮度:
1.5
卫星平台:
Starlink v2.0 mini
覆盖范围:
全球
运营商:
太空探索技术公司
运营商所在国:
美国
制造商(研发单位):
太空探索技术公司
制造商所在国:
美国
使用方式:
暂无
卫星简介
星链(Starlink)计划是由太空探索技术公司(SpaceX)提出的一个巨型低轨卫星互联网星座项目,计划在2019年至2024年间在太空搭建由约1.2万颗卫星组成的“星链”网络,其中1584颗将部署在地球上空550千米处的近地轨道,并从2020年开始工作。该卫星仍在工作。
2D轨道图
3D轨道图
轨道高度分析图
轨道倾角分析图
轨道综合分析图
查看轨道综合分析图